Poteau, OK

12:49 AM CST on February 20, 2018 (GMT -0600)
Kerr

Weather History for KRKR - February, 2014

Change the Weather History Date:

Tuesday, February 25, 2014

  Actual Average (KFSM) Record (KFSM)
Temperature  
Mean Temperature 48 °F -  
Max Temperature 55 °F 54 °F 80 °F (1917)
Min Temperature 41 °F 34 °F 12 °F (1967)
Degree Days  
Heating Degree Days 17    
Moisture  
Dew Point 32 °F    
Average Humidity 55    
Maximum Humidity 81    
Minimum Humidity 41    
Precipitation  
Precipitation 0.00 in - - ()
Sea Level Pressure  
Sea Level Pressure 30.15 in    
Wind  
Wind Speed 4 mph (North)    
Max Wind Speed 17 mph    
Max Gust Speed 23 mph    
Visibility 10 miles    
Events Rain    
Averages and records for this station are not official NWS values.
T = Trace of Precipitation, MM = Missing Value Source: NWS Daily Summary

Daily Weather History Graph

Daily Weather History Graph

Search for Another Location

Airport or City:

Trip Planner

Search our weather history database for the weather conditions in past years. The results will help you decide how hot, cold, wet, or windy it might be!

Date:

Astronomy

Feb. 25, 2014 Rise Set
Actual Time 6:52 AM CST 6:10 PM CST
Civil Twilight 6:27 AM CST 6:36 PM CST
Nautical Twilight 5:57 AM CST 7:05 PM CST
Astronomical Twilight 5:28 AM CST 7:34 PM CST
Moon 3:42 AM CST (2/25) 2:23 PM CST (2/25)
Length of Visible Light 12h 08m
Length of Day
11h 17m
Waning Crescent, 18% of the Moon is Illuminated
Feb 25
Waning Crescent
Mar 1
New
Mar 8
First Quarter
Mar 16
Full
Mar 23
Last Quarter

Hourly Weather History & Observations

Time (CST) Temp. Windchill Dew Point Humidity Pressure Visibility Wind Dir Wind Speed Gust Speed Precip Events Conditions
12:15 AM 46.4 °F - 32.0 °F 57% 30.16 in 10.0 mi Calm Calm - N/A   Unknown
12:35 AM 46.4 °F - 33.8 °F 62% 30.16 in 10.0 mi Calm Calm - N/A Rain Rain
12:55 AM 44.6 °F - 32.0 °F 61% 30.16 in 10.0 mi Calm Calm - N/A   Unknown
1:15 AM 44.6 °F - 32.0 °F 61% 30.17 in 10.0 mi Calm Calm - N/A   Unknown
1:30 AM 44.6 °F - 32.0 °F 61% 30.17 in 10.0 mi Calm Calm - N/A   Unknown
1:55 AM 44.6 °F - 32.0 °F 61% 30.17 in 10.0 mi Calm Calm - N/A   Unknown
2:15 AM 44.6 °F - 35.6 °F 71% 30.17 in 10.0 mi Calm Calm - N/A   Unknown
4:00 AM 44.6 °F - 35.6 °F 71% 30.17 in 10.0 mi Calm Calm - N/A   Unknown
4:15 AM 42.8 °F - 35.6 °F 76% 30.17 in 10.0 mi Calm Calm - N/A   Unknown
4:35 AM 42.8 °F - 35.6 °F 76% 30.17 in 10.0 mi Calm Calm - N/A   Unknown
4:55 AM 42.8 °F - 35.6 °F 76% 30.17 in 10.0 mi Calm Calm - N/A   Unknown
5:15 AM 42.8 °F - 37.4 °F 81% 30.17 in 10.0 mi Calm Calm - N/A   Unknown
5:35 AM 42.8 °F - 35.6 °F 76% 30.17 in 10.0 mi Calm Calm - N/A   Unknown
5:55 AM 42.8 °F - 35.6 °F 76% 30.17 in 10.0 mi Calm Calm - N/A   Unknown
6:15 AM 42.8 °F - 33.8 °F 70% 30.16 in 10.0 mi Calm Calm - N/A   Unknown
6:35 AM 42.8 °F - 35.6 °F 76% 30.16 in 10.0 mi Calm Calm - N/A   Unknown
6:55 AM 42.8 °F - 33.8 °F 70% 30.17 in 10.0 mi Calm Calm - N/A   Unknown
7:15 AM 41.0 °F - 35.6 °F 81% 30.17 in 10.0 mi Calm Calm - N/A   Unknown
7:35 AM 42.8 °F - 35.6 °F 76% 30.17 in 10.0 mi Calm Calm - N/A   Unknown
7:55 AM 42.8 °F - 35.6 °F 76% 30.18 in 10.0 mi Calm Calm - N/A   Unknown
8:15 AM 44.6 °F - 33.8 °F 66% 30.18 in 10.0 mi Calm Calm - N/A   Unknown
8:35 AM 44.6 °F - 33.8 °F 66% 30.18 in 10.0 mi Calm Calm - N/A   Unknown
8:55 AM 48.2 °F - 35.6 °F 62% 30.19 in 10.0 mi Calm Calm - N/A   Unknown
9:15 AM 50.0 °F - 37.4 °F 62% 30.18 in 10.0 mi Calm Calm - N/A   Unknown
9:35 AM 51.8 °F - 37.4 °F 58% 30.18 in 10.0 mi Calm Calm - N/A   Unknown
9:55 AM 51.8 °F - 33.8 °F 50% 30.18 in 10.0 mi NNE 3.5 mph - N/A   Unknown
10:15 AM 51.8 °F - 32.0 °F 47% 30.17 in 10.0 mi NE 4.6 mph - N/A   Unknown
10:35 AM 51.8 °F - 33.8 °F 50% 30.15 in 10.0 mi ENE 4.6 mph - N/A   Unknown
10:50 AM 53.6 °F - 33.8 °F 47% 30.16 in 10.0 mi Calm Calm - N/A   Unknown
11:20 AM 55.4 °F - 35.6 °F 47% 30.15 in 10.0 mi North 3.5 mph - N/A   Unknown
11:35 AM 55.4 °F - 33.8 °F 44% 30.15 in 10.0 mi WNW 3.5 mph - N/A   Unknown
11:55 AM 55.4 °F - 33.8 °F 44% 30.14 in 10.0 mi Calm Calm - N/A   Unknown
12:20 PM 55.4 °F - 33.8 °F 44% 30.14 in 10.0 mi North 4.6 mph - N/A   Unknown
12:35 PM 55.4 °F - 33.8 °F 44% 30.13 in 10.0 mi NNW 5.8 mph - N/A   Unknown
12:55 PM 55.4 °F - 33.8 °F 44% 30.13 in 10.0 mi North 6.9 mph - N/A   Unknown
1:15 PM 55.4 °F - 33.8 °F 44% 30.11 in 10.0 mi NNW 6.9 mph - N/A   Unknown
1:35 PM 55.4 °F - 33.8 °F 44% 30.11 in 10.0 mi North 6.9 mph - N/A   Unknown
1:55 PM 53.6 °F - 33.8 °F 47% 30.10 in 10.0 mi North 4.6 mph - N/A   Unknown
2:15 PM 53.6 °F - 33.8 °F 47% 30.09 in 10.0 mi North 5.8 mph - N/A   Unknown
2:35 PM 55.4 °F - 35.6 °F 47% 30.09 in 10.0 mi NNW 8.1 mph - N/A   Unknown
2:55 PM 53.6 °F - 33.8 °F 47% 30.09 in 10.0 mi NNW 8.1 mph - N/A   Unknown
3:15 PM 53.6 °F - 33.8 °F 47% 30.09 in 10.0 mi NNW 8.1 mph - N/A   Unknown
3:35 PM 53.6 °F - 33.8 °F 47% 30.09 in 10.0 mi NNW 8.1 mph - N/A   Unknown
3:55 PM 51.8 °F - 30.2 °F 44% 30.09 in 10.0 mi NNW 8.1 mph - N/A   Unknown
4:15 PM 51.8 °F - 30.2 °F 44% 30.09 in 10.0 mi NNW 10.4 mph - N/A   Unknown
4:35 PM 51.8 °F - 28.4 °F 41% 30.09 in 10.0 mi NNW 11.5 mph - N/A   Unknown
4:55 PM 51.8 °F - 28.4 °F 41% 30.09 in 10.0 mi North 10.4 mph - N/A   Unknown
5:15 PM 51.8 °F - 28.4 °F 41% 30.10 in 10.0 mi North 11.5 mph - N/A   Unknown
5:35 PM 51.8 °F - 28.4 °F 41% 30.11 in 10.0 mi North 11.5 mph - N/A   Unknown
5:55 PM 51.8 °F - 30.2 °F 44% 30.11 in 10.0 mi North 10.4 mph - N/A   Unknown
6:15 PM 51.8 °F - 30.2 °F 44% 30.11 in 10.0 mi North 8.1 mph - N/A   Unknown
6:35 PM 50.0 °F - 28.4 °F 43% 30.11 in 10.0 mi North 8.1 mph - N/A   Unknown
6:55 PM 48.2 °F - 28.4 °F 46% 30.11 in 10.0 mi North 13.8 mph 20.7 mph N/A   Unknown
7:15 PM 46.4 °F 40.7 °F 26.6 °F 46% 30.11 in 10.0 mi North 12.7 mph 21.9 mph N/A   Unknown
7:35 PM 44.6 °F 37.8 °F 28.4 °F 53% 30.13 in 10.0 mi North 15.0 mph - N/A   Unknown
7:55 PM 44.6 °F 38.1 °F 26.6 °F 49% 30.14 in 10.0 mi North 13.8 mph 20.7 mph N/A   Unknown
8:15 PM 44.6 °F 38.8 °F 26.6 °F 49% 30.15 in 10.0 mi North 11.5 mph - N/A   Unknown
8:40 PM 44.6 °F 38.1 °F 26.6 °F 49% 30.16 in 10.0 mi North 13.8 mph 19.6 mph N/A   Unknown
8:55 PM 42.8 °F 35.8 °F 26.6 °F 53% 30.17 in 10.0 mi North 13.8 mph - N/A   Unknown
9:15 PM 42.8 °F 36.2 °F 26.6 °F 53% 30.18 in 10.0 mi North 12.7 mph 18.4 mph N/A   Unknown
9:35 PM 42.8 °F 36.2 °F 26.6 °F 53% 30.18 in 10.0 mi North 12.7 mph 18.4 mph N/A   Unknown
9:55 PM 42.8 °F 35.8 °F 26.6 °F 53% 30.18 in 10.0 mi North 13.8 mph - N/A   Unknown
10:15 PM 42.8 °F 34.8 °F 26.6 °F 53% 30.18 in 10.0 mi North 17.3 mph 21.9 mph N/A   Unknown
10:35 PM 41.0 °F 32.5 °F 26.6 °F 57% 30.18 in 10.0 mi North 17.3 mph - N/A   Unknown
10:55 PM 41.0 °F 33.5 °F 26.6 °F 57% 30.20 in 10.0 mi North 13.8 mph 23.0 mph N/A   Unknown
11:15 PM 41.0 °F 33.1 °F 24.8 °F 53% 30.21 in 10.0 mi North 15.0 mph 20.7 mph N/A   Unknown
11:35 PM 41.0 °F 33.9 °F 24.8 °F 53% 30.22 in 10.0 mi North 12.7 mph 23.0 mph N/A   Unknown
11:55 PM 41.0 °F 33.1 °F 24.8 °F 53% 30.23 in 10.0 mi NNW 15.0 mph 18.4 mph N/A   Unknown